Flag for U.S.A. Weather past 2 weeks in Leawood, Kansas, U.S.A.

Now
82 °F

Sunny.


Feels Like: 82 °F
Forecast: 66 / 83 °F
Wind: 10 mph from South

Location: Johnson County Executive Airport

Current Time: Jul 24, 2014 at 6:16:22 PM

Latest Report: Jul 24, 2014 at 4:53 PM


Visibility: 10 mi

Pressure: 29.99 "Hg

Humidity: 48%

Dew point: 60 °F

Location of LeawoodLocation

Historic Weather in Leawood — Graph

°F

Leawood temperature yesterday

Maximum temperature yesterday: 89 °F (at 2:53 PM)
Minimum temperature yesterday: 72 °F (at 11:53 PM)
Average temperature yesterday: 81 °F

Past Weeks' High & Low Weather Summary

 TemperatureHumidityPressure
High93 °F (Jul 22, 6:53 PM)100% (Jul 18, 6:53 AM)30.14 "Hg (Jul 18, 6:53 AM)
Low54 °F (Jul 16, 4:53 AM)41% (Jul 23, 2:53 PM)29.89 "Hg (Jul 20, 6:53 PM)
Average74 °F71%30.02 "Hg
* Reported Jul 9 4:53 PM — Jul 24 4:53 PM, Leawood, Weather by CustomWeather, © 2014

Note: Actual official high and low records may vary slightly from our data, if they occured in-between our weather recording intervals... More about our weather records

Advertising

Leawood weather history for previous 24 hours

 ConditionsComfort  
Time TempWeatherWind HumidityBarometerVisibility
4:53 PM
Jul 24
82 °FSunny.10 mph48%29.99 "Hg10 mi
3:53 PM82 °FSunny.14 mph43%30.02 "Hg10 mi
2:53 PM80 °FSunny.8 mph47%30.05 "Hg10 mi
1:53 PM80 °FSunny.10 mph49%30.09 "Hg10 mi
12:53 PM78 °FSunny.12 mph52%30.10 "Hg10 mi
11:53 AM77 °FSunny.9 mph54%30.11 "Hg10 mi
10:53 AM75 °FSunny.13 mph55%30.12 "Hg10 mi
9:53 AM73 °FSunny.13 mph62%30.13 "Hg10 mi
8:53 AM71 °FSunny.13 mph68%30.11 "Hg10 mi
7:53 AM68 °FSunny.7 mph76%30.11 "Hg10 mi
6:53 AM65 °FClear.7 mph81%30.11 "Hg10 mi
5:53 AM65 °FClear.7 mph85%30.09 "Hg10 mi
4:53 AM66 °FClear.7 mph81%30.09 "Hg10 mi
3:53 AM67 °FClear.6 mph81%30.08 "Hg10 mi
2:53 AM68 °FClear.7 mph82%30.08 "Hg10 mi
1:53 AM70 °FClear.9 mph76%30.09 "Hg10 mi
12:53 AM71 °FClear.9 mph73%30.09 "Hg10 mi
11:53 PM
Jul 23
72 °FClear.6 mph71%30.10 "Hg10 mi
10:53 PM74 °FClear.5 mph67%30.10 "Hg10 mi
9:53 PM76 °FClear.6 mph62%30.09 "Hg10 mi
8:53 PM78 °FSunny.7 mph56%30.07 "Hg10 mi
7:53 PM81 °FSunny.8 mph54%30.06 "Hg10 mi
6:53 PM84 °FSunny.12 mph51%30.04 "Hg10 mi
Weather by CustomWeather, © 2014

See weather overviewHow to use our weather pages